Zurück zum Katalog

IRIDIUM 138

AktivKommunikationPO
NORAD 43071·PAYLOAD·🇺🇸 United States

Gestartet Dec 23, 2017 von Vandenberg Space Force Base

Loading…

Nächste Überflüge (nächste 24 Stunden)

TLE

AktuellSource: CelesTrak SupGP

Epoche: Sep 14, 2026, 22:04 UTC

1 43071C 17083B   26257.91979167  .00003225  00000+0  11532-2 0  2577
2 43071  86.3927 284.2111 0002512  93.7098  12.4369 14.34214022    16

Verfolge IRIDIUM 138 in Echtzeit mit AllMySat

Download on the App Store